COSMOS 1275 DEB, 18505

Orbit data source: Space-Track

COSMOS 1275 DEB, 18505 is space debris in LEO originally from a launch on Thu, 04 Jun 1981 UTC launched from the Plesetsk Missile And Space Complex (PKMTR). Debris objects in space refer to the collection of defunct objects orbiting the Earth. Examples of debris include non-operational satellites, rocket bodies, and fragments generated from explosions, collisions, or faulty payload assembly.

Loading next visibility...
Identifier
18505, 1981-053LS
Orbit
LEO
Country
Flag of CISCIS
Related business
Manufacturer
Unknown
Mission
Spacecraft
Bus & Motor
Unknown
Mass
Unknown
Launch date (UTC)
1981-06-04 (44 years ago)
Launch vehicle
Unknown
Launch site
Plesetsk Missile And Space Complex (PKMTR)
Object type
Payload
Rocket body
Debris
Shape & HBR
Unknown shape, 0.1 m
Radar Cross Section
Small (<0.1 m²)

Expand to show TLE details & history
Last TLE update: 1 day ago

TLE from 1 day ago
0 COSMOS 1275 DEB
1 18505U 81053LS  25301.89140892  .00003665  00000-0  24396-2 0  9994
2 18505  83.2863 250.1914 0069654 282.2807  77.0571 13.99799729 40930
Epoch: 2025-10-28T21:23Z
TLE epoch observation values (Epoch: 2025-10-28T21:23:37.730Z)
Latitude
-0.00001°
Longitude
-108.1882°
Altitude
886.419 km
Speed
7.415 km/s
True Right ascension
16h 40m 45s
True Declination
0° 00' 00"
Sunlit
Object was in daylight at epoch
Visualization orbit readout
Latitude
Unknown
Longitude
Unknown
Altitude
Unknown
Speed
Unknown
Apparent Right ascension
Unknown
Apparent Declination
Unknown
Sunlit
N/A
Visualization observer readout
Local Sidereal Time
23:52:24
Azimuth
Unknown
Elevation
Unknown
Doppler factor
Unknown
Orbital elements
Apogee altitude
942.227 km
Perigee altitude
840.954 km
Semi-major axis
7,269.727 km
Eccentricity
0.00697
Inclination
83.2863°
RAAN
250.1914°
Arg. of periapsis
282.2807°
True anomaly
77.83649°
Mean anomaly
77.0571°
Eccentric anomaly
77.44665°
Mean motion
3.5016 °/min
Orbital period
102.81 mins
BSTAR
0.0024396
Loading maneuver chart data...
Computing Atmospheric mass density...
Loading historical data...
Loading historical data...
Loading historical data...
Loading historical data...
Loading historical data...
Loading historical data...
Loading historical data...

Documentation

Showing up to 5 results
|